Location: Crown Jewel
(34.0772°N, 117.2100°W)
Time: 12:40:06
(UTC+00:00)

Daily predictions for brighter satellites

Satellite Brightness Start Highest point End
(mag) Time Altitude Azimuth Time Altitude Azimuth Time Altitude Azimuth
USA 267 4.3 12:00:26 10° ESE 12:06:41 49° NE 12:12:55 10° NNW
CZ-2C R/B 4.3 12:04:04 10° NNW 12:06:46 19° WNW 12:07:45 17° W
ARIANE 5 R/B 4.4 12:04:19 10° NW 12:06:51 14° WNW 12:08:34 12° W
Cosmos 1400 Rocket 4.3 12:03:38 10° SSE 12:07:14 37° E 12:10:51 10° NNE
CZ-4B R/B 1.9 12:08:33 10° SSE 12:11:45 58° ENE 12:14:53 10° N
Cosmos 1745 Rocket 4.5 12:06:34 10° NNW 12:12:14 38° W 12:17:51 10° SSW
SJ-6F 4.5 12:08:55 10° NNE 12:13:07 86° ESE 12:17:18 10° SSW
Cosmos 1455 2.9 12:09:53 10° S 12:13:38 55° E 12:17:26 10° NNE
Landsat 5 4.1 12:11:13 10° SSW 12:14:41 30° W 12:18:17 10° NW
FENGYUN 3A 4.5 12:10:33 10° NNE 12:15:48 53° E 12:21:02 10° S
Cosmos 1300 4.2 12:15:09 16° WSW 12:16:33 19° WNW 12:19:22 10° NNW
Lacrosse 5 rocket 2.1 12:12:39 10° SSW 12:17:03 58° SE 12:21:36 10° NE
Meteor 2-1 Rocket 4.4 12:17:25 10° S 12:23:14 88° W 12:29:11 10° N
SeaSat 1 3.0 12:18:38 10° N 12:23:18 43° WNW 12:27:55 10° SW
ADEOS Rocket 3.9 12:17:01 10° SSE 12:24:35 74° ENE 12:32:21 10° N
ERS-2 3.3 12:24:45 10° SSW 12:27:42 23° W 12:30:41 10° NW
Cosmos 2058 3.1 12:24:40 10° N 12:28:52 81° E 12:33:03 10° S
DELTA 2 R/B (1) 4.5 12:28:14 10° SW 12:33:29 42° SSE 12:38:44 10° ENE
TSX-5 3.6 12:39:15 10° SW 12:42:21 47° WNW 12:45:25 10° NNE
SAR-Lupe-4 3.9 12:40:50 10° S 12:44:14 43° W 12:47:38 10° NNW
COSMO-SKYMED 1 4.3 12:40:31 10° SE 12:44:34 40° ENE 12:48:37 10° N
METEOR-M 4.2 12:39:31 10° NNE 12:44:53 87° ESE 12:50:14 10° SSW
